Time,TemperatureF,DewpointF,PressureIn,WindDirection,WindDirectionDegrees,WindSpeedMPH,WindSpeedGustMPH,Humidity,HourlyPrecipIn,Conditions,Clouds,dailyrainin,SoftwareType,DateUTC
2013-06-21 00:58:00,70.5,70.5,30.22,ESE,115,0.0,0.0,100,0.00,,,0.00,Meteorologica,2013-06-21 04:58:00,
2013-06-21 01:00:00,71.6,71.6,30.22,ENE,69,0.0,0.0,100,0.00,,,0.00,Meteorologica,2013-06-21 05:00:00,
2013-06-21 01:01:00,71.6,71.6,30.22,ENE,69,0.0,0.0,100,0.00,,,0.00,Meteorologica,2013-06-21 05:01:00,
2013-06-21 01:02:00,71.5,71.5,30.22,ENE,69,0.0,0.0,100,0.00,,,0.00,Meteorologica,2013-06-21 05:02:00,
2013-06-21 01:03:00,70.5,70.5,30.22,ESE,115,0.0,0.0,100,0.00,,,0.00,Meteorologica,2013-06-21 05:03:00,
2013-06-21 01:04:00,71.5,71.5,30.22,ENE,69,0.0,0.0,100,0.00,,,0.00,Meteorologica,2013-06-21 05:04:00,
2013-06-21 01:05:00,71.7,71.7,30.22,ENE,69,0.0,0.0,100,0.00,,,0.00,Meteorologica,2013-06-21 05:05:00,
2013-06-21 01:06:00,71.5,71.5,30.22,ENE,69,0.0,0.0,100,0.00,,,0.00,Meteorologica,2013-06-21 05:06:00,
2013-06-21 01:07:00,71.6,71.6,30.22,ENE,69,0.0,0.0,100,0.00,,,0.00,Meteorologica,2013-06-21 05:07:00,
2013-06-21 01:08:00,70.3,70.3,30.22,ESE,115,0.0,0.0,100,0.00,,,0.00,Meteorologica,2013-06-21 05:08:00,
2013-06-21 01:09:00,71.6,71.6,30.22,ENE,69,0.0,0.0,100,0.00,,,0.00,Meteorologica,2013-06-21 05:09:00,
2013-06-21 01:10:00,71.5,71.5,30.22,ENE,69,0.0,0.0,100,0.00,,,0.00,Meteorologica,2013-06-21 05:10:00,
2013-06-21 01:11:00,71.6,71.6,30.22,ENE,69,0.0,0.0,100,0.00,,,0.00,Meteorologica,2013-06-21 05:11:00,
2013-06-21 01:12:00,71.5,71.5,30.22,ENE,69,0.0,0.0,100,0.00,,,0.00,Meteorologica,2013-06-21 05:12:00,
2013-06-21 01:13:00,71.5,71.5,30.22,ENE,69,0.0,0.0,100,0.00,,,0.00,Meteorologica,2013-06-21 05:13:00,
2013-06-21 01:14:00,70.3,70.3,30.22,ESE,115,0.0,0.0,100,0.00,,,0.00,Meteorologica,2013-06-21 05:14:00,
2013-06-21 01:15:00,71.5,71.5,30.22,ENE,69,0.0,0.0,100,0.00,,,0.00,Meteorologica,2013-06-21 05:15:00,
2013-06-21 01:16:00,71.7,71.7,30.23,ENE,69,0.0,0.0,100,0.00,,,0.00,Meteorologica,2013-06-21 05:16:00,
2013-06-21 01:17:00,71.6,71.6,30.22,ENE,69,0.0,0.0,100,0.00,,,0.00,Meteorologica,2013-06-21 05:17:00,
2013-06-21 01:18:00,71.6,71.6,30.23,ENE,69,0.0,0.0,100,0.00,,,0.00,Meteorologica,2013-06-21 05:18:00,
2013-06-21 01:19:00,70.4,70.4,30.22,ESE,115,0.0,0.0,100,0.00,,,0.00,Meteorologica,2013-06-21 05:19:00,
2013-06-21 01:20:00,71.5,71.5,30.22,ENE,69,0.0,0.0,100,0.00,,,0.00,Meteorologica,2013-06-21 05:20:00,
2013-06-21 01:21:00,71.6,71.6,30.22,ENE,69,0.0,0.0,100,0.00,,,0.00,Meteorologica,2013-06-21 05:21:00,
2013-06-21 01:22:00,71.6,71.6,30.22,ENE,69,0.0,0.0,100,0.00,,,0.00,Meteorologica,2013-06-21 05:22:00,
2013-06-21 01:23:00,71.6,71.6,30.22,ENE,69,0.0,0.0,100,0.00,,,0.00,Meteorologica,2013-06-21 05:23:00,
2013-06-21 01:24:00,70.1,70.1,30.22,ESE,115,0.0,0.0,100,0.00,,,0.00,Meteorologica,2013-06-21 05:24:00,
2013-06-21 01:25:00,71.5,71.5,30.23,ENE,69,0.0,0.0,100,0.00,,,0.00,Meteorologica,2013-06-21 05:25:00,
2013-06-21 01:26:00,71.5,71.5,30.22,ENE,69,0.0,0.0,100,0.00,,,0.00,Meteorologica,2013-06-21 05:26:00,
2013-06-21 01:27:00,71.4,71.4,30.23,ENE,69,0.0,0.0,100,0.00,,,0.00,Meteorologica,2013-06-21 05:27:00,
2013-06-21 01:28:00,71.5,71.5,30.22,ENE,69,0.0,0.0,100,0.00,,,0.00,Meteorologica,2013-06-21 05:28:00,
2013-06-21 01:29:00,70.0,70.0,30.22,ESE,115,0.0,0.0,100,0.00,,,0.00,Meteorologica,2013-06-21 05:29:00,
2013-06-21 01:30:00,71.5,71.5,30.22,ENE,69,0.0,0.0,100,0.00,,,0.00,Meteorologica,2013-06-21 05:30:00,
2013-06-21 01:31:00,71.4,71.4,30.23,ENE,69,0.0,0.0,100,0.00,,,0.00,Meteorologica,2013-06-21 05:31:00,
2013-06-21 01:32:00,71.4,71.4,30.22,ENE,69,0.0,0.0,100,0.00,,,0.00,Meteorologica,2013-06-21 05:32:00,
2013-06-21 01:33:00,71.4,71.4,30.22,ENE,69,0.0,0.0,100,0.00,,,0.00,Meteorologica,2013-06-21 05:33:00,
2013-06-21 01:34:00,70.1,70.1,30.22,ESE,115,0.0,0.0,100,0.00,,,0.00,Meteorologica,2013-06-21 05:34:00,
2013-06-21 01:35:00,71.5,71.5,30.22,ENE,69,0.0,0.0,100,0.00,,,0.00,Meteorologica,2013-06-21 05:35:00,
2013-06-21 01:36:00,71.5,71.5,30.22,ENE,69,0.0,0.0,100,0.00,,,0.00,Meteorologica,2013-06-21 05:36:00,
2013-06-21 01:37:00,71.4,71.4,30.22,ENE,69,0.0,0.0,100,0.00,,,0.00,Meteorologica,2013-06-21 05:37:00,
2013-06-21 01:38:00,71.4,71.4,30.23,ENE,69,0.0,0.0,100,0.00,,,0.00,Meteorologica,2013-06-21 05:38:00,
2013-06-21 01:39:00,71.4,71.4,30.22,ENE,69,0.0,0.0,100,0.00,,,0.00,Meteorologica,2013-06-21 05:39:00,
2013-06-21 01:40:00,70.0,70.0,30.22,ESE,115,0.0,0.0,100,0.00,,,0.00,Meteorologica,2013-06-21 05:40:00,
2013-06-21 01:41:00,71.5,71.5,30.22,ENE,69,0.0,0.0,100,0.00,,,0.00,Meteorologica,2013-06-21 05:41:00,
2013-06-21 01:42:00,71.3,71.3,30.22,ENE,69,0.0,0.0,100,0.00,,,0.00,Meteorologica,2013-06-21 05:42:00,
2013-06-21 01:43:00,71.3,71.3,30.22,ENE,69,0.0,0.0,100,0.00,,,0.00,Meteorologica,2013-06-21 05:43:00,
2013-06-21 01:44:00,71.4,71.4,30.22,ENE,69,0.0,0.0,100,0.00,,,0.00,Meteorologica,2013-06-21 05:44:00,
2013-06-21 01:45:00,69.9,69.9,30.22,ESE,115,0.0,0.0,100,0.00,,,0.00,Meteorologica,2013-06-21 05:45:00,
2013-06-21 01:46:00,71.4,71.4,30.22,ENE,69,0.0,0.0,100,0.00,,,0.00,Meteorologica,2013-06-21 05:46:00,
2013-06-21 01:47:00,71.5,71.5,30.22,ENE,69,0.0,0.0,100,0.00,,,0.00,Meteorologica,2013-06-21 05:47:00,
2013-06-21 01:48:00,71.4,71.4,30.22,ENE,69,0.0,0.0,100,0.00,,,0.00,Meteorologica,2013-06-21 05:48:00,
2013-06-21 01:49:00,71.3,71.3,30.22,ENE,69,0.0,0.0,100,0.00,,,0.00,Meteorologica,2013-06-21 05:49:00,
2013-06-21 01:50:00,69.9,69.9,30.22,ESE,115,0.0,0.0,100,0.00,,,0.00,Meteorologica,2013-06-21 05:50:00,
2013-06-21 01:51:00,71.4,71.4,30.22,ENE,69,0.0,0.0,100,0.00,,,0.00,Meteorologica,2013-06-21 05:51:00,
2013-06-21 01:52:00,71.3,71.3,30.22,ENE,69,0.0,0.0,100,0.00,,,0.00,Meteorologica,2013-06-21 05:52:00,
2013-06-21 01:53:00,71.3,71.3,30.22,ENE,69,0.0,0.0,100,0.00,,,0.00,Meteorologica,2013-06-21 05:53:00,
2013-06-21 01:54:00,71.3,71.3,30.22,ENE,69,0.0,0.0,100,0.00,,,0.00,Meteorologica,2013-06-21 05:54:00,
2013-06-21 01:55:00,71.2,71.2,30.22,ENE,69,0.0,0.0,100,0.00,,,0.00,Meteorologica,2013-06-21 05:55:00,
2013-06-21 01:56:00,69.7,69.7,30.22,ESE,115,0.0,0.0,100,0.00,,,0.00,Meteorologica,2013-06-21 05:56:00,
2013-06-21 01:57:00,71.3,71.3,30.22,ENE,69,0.0,0.0,100,0.00,,,0.00,Meteorologica,2013-06-21 05:57:00,
2013-06-21 01:58:00,71.3,71.3,30.22,ENE,69,0.0,0.0,100,0.00,,,0.00,Meteorologica,2013-06-21 05:58:00,
2013-06-21 01:59:00,71.2,71.2,30.22,ENE,69,0.0,0.0,100,0.00,,,0.00,Meteorologica,2013-06-21 05:59:00,
2013-06-21 02:01:00,69.6,69.6,30.22,ESE,115,0.0,0.0,100,0.00,,,0.00,Meteorologica,2013-06-21 06:01:00,
2013-06-21 02:06:00,69.6,69.6,30.22,ESE,115,0.0,0.0,100,0.00,,,0.00,Meteorologica,2013-06-21 06:06:00,
2013-06-21 02:11:00,69.6,69.6,30.22,ESE,115,0.0,0.0,100,0.00,,,0.00,Meteorologica,2013-06-21 06:11:00,
2013-06-21 02:16:00,69.7,69.7,30.22,ESE,115,0.0,0.0,100,0.00,,,0.00,Meteorologica,2013-06-21 06:16:00,
2013-06-21 02:22:00,69.6,69.6,30.22,ESE,115,0.0,0.0,100,0.00,,,0.00,Meteorologica,2013-06-21 06:22:00,
2013-06-21 02:27:00,69.6,69.6,30.22,ESE,115,0.0,0.0,100,0.00,,,0.00,Meteorologica,2013-06-21 06:27:00,
2013-06-21 02:32:00,69.6,69.6,30.22,ESE,115,0.0,0.0,100,0.00,,,0.00,Meteorologica,2013-06-21 06:32:00,
2013-06-21 02:37:00,69.6,69.6,30.21,ESE,115,0.0,0.0,100,0.00,,,0.00,Meteorologica,2013-06-21 06:37:00,
2013-06-21 02:42:00,69.5,69.5,30.21,ESE,115,0.0,0.0,100,0.00,,,0.00,Meteorologica,2013-06-21 06:42:00,
2013-06-21 02:47:00,69.7,69.7,30.21,ESE,115,0.0,0.0,100,0.00,,,0.00,Meteorologica,2013-06-21 06:47:00,
2013-06-21 02:52:00,69.6,69.6,30.21,ESE,115,0.0,0.0,100,0.00,,,0.00,Meteorologica,2013-06-21 06:52:00,
2013-06-21 02:57:00,69.4,69.4,30.21,ESE,115,0.0,0.0,100,0.00,,,0.00,Meteorologica,2013-06-21 06:57:00,
2013-06-21 03:03:00,69.6,69.6,30.21,ESE,115,0.0,0.0,100,0.00,,,0.00,Meteorologica,2013-06-21 07:03:00,
2013-06-21 03:08:00,69.5,69.5,30.21,ESE,115,0.0,0.0,100,0.00,,,0.00,Meteorologica,2013-06-21 07:08:00,
2013-06-21 03:13:00,69.5,69.5,30.21,ESE,115,0.0,0.0,100,0.00,,,0.00,Meteorologica,2013-06-21 07:13:00,
2013-06-21 03:18:00,69.4,69.4,30.21,ESE,115,0.0,0.0,100,0.00,,,0.00,Meteorologica,2013-06-21 07:18:00,
2013-06-21 03:23:00,69.3,69.3,30.21,ESE,115,0.0,0.0,100,0.00,,,0.00,Meteorologica,2013-06-21 07:23:00,
2013-06-21 03:29:00,69.5,69.5,30.21,ESE,115,0.0,0.0,100,0.00,,,0.00,Meteorologica,2013-06-21 07:29:00,
2013-06-21 03:34:00,69.3,69.3,30.21,ESE,115,0.0,0.0,100,0.00,,,0.00,Meteorologica,2013-06-21 07:34:00,
2013-06-21 03:39:00,69.3,69.3,30.21,ESE,115,0.0,0.0,100,0.00,,,0.00,Meteorologica,2013-06-21 07:39:00,
2013-06-21 03:44:00,69.2,69.2,30.21,ESE,115,0.0,0.0,100,0.00,,,0.00,Meteorologica,2013-06-21 07:44:00,
2013-06-21 03:49:00,69.1,69.1,30.21,ESE,115,0.0,0.0,100,0.00,,,0.00,Meteorologica,2013-06-21 07:49:00,
2013-06-21 03:55:00,69.3,69.3,30.21,ESE,115,0.0,0.0,100,0.00,,,0.00,Meteorologica,2013-06-21 07:55:00,
2013-06-21 04:00:00,68.9,68.9,30.21,ESE,115,0.0,0.0,100,0.00,,,0.00,Meteorologica,2013-06-21 08:00:00,
2013-06-21 04:05:00,69.1,69.1,30.21,ESE,115,0.0,0.0,100,0.00,,,0.00,Meteorologica,2013-06-21 08:05:00,
2013-06-21 04:10:00,69.0,69.0,30.21,ESE,115,0.0,0.0,100,0.00,,,0.00,Meteorologica,2013-06-21 08:10:00,
2013-06-21 04:15:00,68.8,68.8,30.21,ESE,115,0.0,0.0,100,0.00,,,0.00,Meteorologica,2013-06-21 08:15:00,
2013-06-21 04:21:00,69.0,69.0,30.21,ESE,115,0.0,0.0,100,0.00,,,0.00,Meteorologica,2013-06-21 08:21:00,
2013-06-21 04:26:00,68.8,68.8,30.21,ESE,115,0.0,0.0,100,0.00,,,0.00,Meteorologica,2013-06-21 08:26:00,
2013-06-21 04:31:00,68.8,68.8,30.21,ESE,115,0.0,0.0,100,0.00,,,0.00,Meteorologica,2013-06-21 08:31:00,
2013-06-21 04:36:00,68.6,68.6,30.22,ESE,115,0.0,0.0,100,0.00,,,0.00,Meteorologica,2013-06-21 08:36:00,
2013-06-21 04:42:00,68.4,68.4,30.22,ESE,115,0.0,0.0,100,0.00,,,0.00,Meteorologica,2013-06-21 08:42:00,
2013-06-21 04:47:00,68.4,68.4,30.22,ESE,115,0.0,0.0,100,0.00,,,0.00,Meteorologica,2013-06-21 08:47:00,
2013-06-21 04:52:00,68.4,68.4,30.22,ESE,115,0.0,0.0,100,0.00,,,0.00,Meteorologica,2013-06-21 08:52:00,
2013-06-21 04:57:00,68.2,68.2,30.22,ESE,115,0.0,0.0,100,0.00,,,0.00,Meteorologica,2013-06-21 08:57:00,
2013-06-21 05:03:00,68.3,68.3,30.22,ESE,115,0.0,0.0,100,0.00,,,0.00,Meteorologica,2013-06-21 09:03:00,
2013-06-21 05:08:00,68.3,68.3,30.22,ESE,115,0.0,0.0,100,0.00,,,0.00,Meteorologica,2013-06-21 09:08:00,
2013-06-21 05:13:00,68.2,68.2,30.22,ESE,115,0.0,0.0,100,0.00,,,0.00,Meteorologica,2013-06-21 09:13:00,
2013-06-21 05:19:00,68.4,68.4,30.22,ESE,115,0.0,0.0,100,0.00,,,0.00,Meteorologica,2013-06-21 09:19:00,
2013-06-21 05:24:00,68.2,68.2,30.22,ESE,115,0.0,0.0,100,0.00,,,0.00,Meteorologica,2013-06-21 09:24:00,
2013-06-21 05:29:00,68.3,68.3,30.22,ESE,115,0.0,0.0,100,0.00,,,0.00,Meteorologica,2013-06-21 09:29:00,
2013-06-21 05:34:00,68.3,68.3,30.22,ESE,115,0.0,0.0,100,0.00,,,0.00,Meteorologica,2013-06-21 09:34:00,
2013-06-21 05:39:00,68.3,68.3,30.22,ESE,115,0.0,0.0,100,0.00,,,0.00,Meteorologica,2013-06-21 09:39:00,
2013-06-21 05:44:00,68.3,68.3,30.22,ESE,115,0.0,0.0,100,0.00,,,0.00,Meteorologica,2013-06-21 09:44:00,
2013-06-21 05:49:00,68.4,68.4,30.22,ESE,115,0.0,0.0,100,0.00,,,0.00,Meteorologica,2013-06-21 09:49:00,
2013-06-21 05:54:00,68.4,68.4,30.22,ESE,115,0.0,0.0,100,0.00,,,0.00,Meteorologica,2013-06-21 09:54:00,
2013-06-21 06:00:00,68.4,68.4,30.22,ESE,115,0.0,0.0,100,0.00,,,0.00,Meteorologica,2013-06-21 10:00:00,
2013-06-21 06:05:00,68.5,68.5,30.22,ESE,115,0.0,0.0,100,0.00,,,0.00,Meteorologica,2013-06-21 10:05:00,
2013-06-21 06:10:00,68.3,68.3,30.23,ESE,115,0.0,0.0,100,0.00,,,0.00,Meteorologica,2013-06-21 10:10:00,
2013-06-21 06:15:00,68.3,68.3,30.23,ESE,115,0.0,0.0,100,0.00,,,0.00,Meteorologica,2013-06-21 10:15:00,
2013-06-21 06:21:00,68.4,68.4,30.23,ESE,115,0.0,0.0,100,0.00,,,0.00,Meteorologica,2013-06-21 10:21:00,
2013-06-21 06:27:00,68.3,68.3,30.23,ESE,115,0.0,0.0,100,0.00,,,0.00,Meteorologica,2013-06-21 10:27:00,
2013-06-21 06:32:00,68.3,68.3,30.24,ESE,115,0.0,0.0,100,0.00,,,0.00,Meteorologica,2013-06-21 10:32:00,
2013-06-21 06:37:00,68.4,68.4,30.24,ESE,115,0.0,0.0,100,0.00,,,0.00,Meteorologica,2013-06-21 10:37:00,
2013-06-21 06:42:00,68.3,68.3,30.24,ESE,115,0.0,0.0,100,0.00,,,0.00,Meteorologica,2013-06-21 10:42:00,
2013-06-21 06:47:00,68.2,68.2,30.23,ESE,115,0.0,0.0,100,0.00,,,0.00,Meteorologica,2013-06-21 10:47:00,
2013-06-21 07:00:00,68.1,68.1,30.24,ESE,115,0.0,0.0,100,0.00,,,0.00,Meteorologica,2013-06-21 11:00:00,
2013-06-21 07:05:00,68.1,68.1,30.24,ESE,115,0.0,0.0,100,0.00,,,0.00,Meteorologica,2013-06-21 11:05:00,
2013-06-21 07:10:00,68.0,68.0,30.24,ESE,115,0.0,0.0,100,0.00,,,0.00,Meteorologica,2013-06-21 11:10:00,
2013-06-21 07:16:00,68.1,68.1,30.24,ESE,115,0.0,0.0,100,0.00,,,0.00,Meteorologica,2013-06-21 11:16:00,
2013-06-21 07:21:00,67.9,67.9,30.24,ESE,115,0.0,0.0,100,0.00,,,0.00,Meteorologica,2013-06-21 11:21:00,
2013-06-21 07:26:00,67.8,67.8,30.24,ESE,115,0.0,0.0,100,0.00,,,0.00,Meteorologica,2013-06-21 11:26:00,
2013-06-21 07:31:00,67.9,67.9,30.24,ESE,115,0.0,0.0,100,0.00,,,0.00,Meteorologica,2013-06-21 11:31:00,
2013-06-21 07:37:00,68.0,68.0,30.25,ESE,115,0.0,0.0,100,0.00,,,0.00,Meteorologica,2013-06-21 11:37:00,
2013-06-21 07:42:00,68.1,68.1,30.25,ESE,115,0.0,0.0,100,0.00,,,0.00,Meteorologica,2013-06-21 11:42:00,
2013-06-21 07:47:00,68.2,68.2,30.25,ESE,115,0.0,0.0,100,0.00,,,0.00,Meteorologica,2013-06-21 11:47:00,
2013-06-21 07:52:00,68.3,68.3,30.25,ESE,115,0.0,0.0,100,0.00,,,0.00,Meteorologica,2013-06-21 11:52:00,
2013-06-21 07:57:00,68.3,68.3,30.25,ESE,115,0.0,0.0,100,0.00,,,0.00,Meteorologica,2013-06-21 11:57:00,
2013-06-21 08:03:00,68.5,68.5,30.25,ESE,115,0.0,0.0,100,0.00,,,0.00,Meteorologica,2013-06-21 12:03:00,
2013-06-21 08:08:00,68.4,68.4,30.26,ESE,115,0.0,0.0,100,0.00,,,0.00,Meteorologica,2013-06-21 12:08:00,
2013-06-21 08:13:00,68.6,68.6,30.26,ESE,115,0.0,0.0,100,0.00,,,0.00,Meteorologica,2013-06-21 12:13:00,
2013-06-21 08:18:00,68.8,68.8,30.26,ESE,115,0.0,0.0,100,0.00,,,0.00,Meteorologica,2013-06-21 12:18:00,
2013-06-21 08:23:00,69.0,69.0,30.26,ESE,115,0.0,0.0,100,0.00,,,0.00,Meteorologica,2013-06-21 12:23:00,
2013-06-21 08:29:00,68.9,68.9,30.26,ESE,115,0.0,0.0,100,0.00,,,0.00,Meteorologica,2013-06-21 12:29:00,
2013-06-21 08:34:00,69.2,69.2,30.26,ESE,115,0.0,0.0,100,0.00,,,0.00,Meteorologica,2013-06-21 12:34:00,
2013-06-21 08:39:00,69.5,69.5,30.26,ESE,115,0.0,0.0,100,0.00,,,0.00,Meteorologica,2013-06-21 12:39:00,
2013-06-21 08:44:00,69.4,69.4,30.26,ESE,115,0.0,0.0,100,0.00,,,0.00,Meteorologica,2013-06-21 12:44:00,
2013-06-21 08:50:00,69.5,69.5,30.26,ESE,115,0.0,0.0,100,0.00,,,0.00,Meteorologica,2013-06-21 12:50:00,
2013-06-21 08:55:00,69.6,69.6,30.26,ESE,115,0.0,0.0,100,0.00,,,0.00,Meteorologica,2013-06-21 12:55:00,
2013-06-21 09:00:00,69.7,69.7,30.26,ESE,115,0.0,0.0,100,0.00,,,0.00,Meteorologica,2013-06-21 13:00:00,
2013-06-21 09:05:00,70.0,70.0,30.26,ESE,115,0.0,0.0,100,0.00,,,0.00,Meteorologica,2013-06-21 13:05:00,
2013-06-21 09:10:00,70.1,70.1,30.26,ESE,115,0.0,0.0,100,0.00,,,0.00,Meteorologica,2013-06-21 13:10:00,
2013-06-21 09:16:00,70.3,70.3,30.26,ESE,115,0.0,0.0,100,0.00,,,0.00,Meteorologica,2013-06-21 13:16:00,
2013-06-21 09:20:00,70.2,70.2,30.27,ESE,115,0.0,0.0,100,0.00,,,0.00,Meteorologica,2013-06-21 13:20:00,
2013-06-21 09:26:00,70.6,70.6,30.27,ESE,115,0.0,0.0,100,0.00,,,0.00,Meteorologica,2013-06-21 13:26:00,
2013-06-21 09:31:00,70.8,70.8,30.27,ESE,115,0.0,0.0,100,0.00,,,0.00,Meteorologica,2013-06-21 13:31:00,
2013-06-21 09:36:00,70.9,70.9,30.27,ESE,115,0.0,0.0,100,0.00,,,0.00,Meteorologica,2013-06-21 13:36:00,
2013-06-21 09:41:00,71.2,71.2,30.27,ESE,115,0.0,0.0,100,0.00,,,0.00,Meteorologica,2013-06-21 13:41:00,
2013-06-21 09:46:00,71.0,71.0,30.27,ESE,115,0.0,0.0,100,0.00,,,0.00,Meteorologica,2013-06-21 13:46:00,
2013-06-21 09:51:00,71.1,71.1,30.27,ESE,115,0.0,0.0,100,0.00,,,0.00,Meteorologica,2013-06-21 13:51:00,
2013-06-21 09:57:00,71.4,71.4,30.27,ESE,115,0.0,0.0,100,0.00,,,0.00,Meteorologica,2013-06-21 13:57:00,
2013-06-21 10:02:00,71.3,71.3,30.27,ESE,115,0.0,0.0,100,0.00,,,0.00,Meteorologica,2013-06-21 14:02:00,
2013-06-21 10:07:00,71.5,71.5,30.27,ESE,115,0.0,0.0,100,0.00,,,0.00,Meteorologica,2013-06-21 14:07:00,
2013-06-21 10:12:00,71.7,71.7,30.27,ESE,115,0.0,0.0,100,0.00,,,0.00,Meteorologica,2013-06-21 14:12:00,
2013-06-21 10:17:00,71.9,71.9,30.27,ESE,115,0.0,0.0,100,0.00,,,0.00,Meteorologica,2013-06-21 14:17:00,
2013-06-21 10:22:00,71.9,71.9,30.27,ESE,115,0.0,0.0,100,0.00,,,0.00,Meteorologica,2013-06-21 14:22:00,
2013-06-21 10:27:00,72.2,72.2,30.27,ESE,115,0.0,0.0,100,0.00,,,0.00,Meteorologica,2013-06-21 14:27:00,
2013-06-21 10:33:00,72.3,72.3,30.27,ESE,115,0.0,0.0,100,0.00,,,0.00,Meteorologica,2013-06-21 14:33:00,
2013-06-21 10:38:00,72.3,72.3,30.27,ESE,115,0.0,0.0,100,0.00,,,0.00,Meteorologica,2013-06-21 14:38:00,
2013-06-21 10:43:00,72.5,72.5,30.27,ESE,115,0.0,0.0,100,0.00,,,0.00,Meteorologica,2013-06-21 14:43:00,
2013-06-21 10:49:00,72.7,72.7,30.27,ESE,115,0.0,0.0,100,0.00,,,0.00,Meteorologica,2013-06-21 14:49:00,
2013-06-21 10:54:00,73.1,73.1,30.28,ESE,115,0.0,0.0,100,0.00,,,0.00,Meteorologica,2013-06-21 14:54:00,
2013-06-21 10:59:00,73.2,73.2,30.28,ESE,115,0.0,0.0,100,0.00,,,0.00,Meteorologica,2013-06-21 14:59:00,
2013-06-21 11:04:00,73.4,73.4,30.28,ESE,115,0.0,0.0,100,0.00,,,0.00,Meteorologica,2013-06-21 15:04:00,
2013-06-21 11:09:00,73.7,73.7,30.28,ESE,115,0.0,0.0,100,0.00,,,0.00,Meteorologica,2013-06-21 15:09:00,
2013-06-21 11:14:00,74.1,74.1,30.28,ESE,115,0.0,0.0,100,0.00,,,0.00,Meteorologica,2013-06-21 15:14:00,
2013-06-21 11:19:00,74.4,74.4,30.28,ESE,115,0.0,0.0,100,0.00,,,0.00,Meteorologica,2013-06-21 15:19:00,
2013-06-21 11:24:00,74.9,74.9,30.28,SSW,195,2.5,0.0,100,0.00,,,0.00,Meteorologica,2013-06-21 15:24:00,
2013-06-21 11:29:00,75.2,74.8,30.29,East,84,2.4,7.2,98,0.00,,,0.00,Meteorologica,2013-06-21 15:29:00,
2013-06-21 11:34:00,75.7,72.6,30.29,WSW,241,1.2,4.8,90,0.00,,,0.00,Meteorologica,2013-06-21 15:34:00,
2013-06-21 11:40:00,75.9,72.5,30.29,ESE,115,1.4,2.2,89,0.00,,,0.00,Meteorologica,2013-06-21 15:40:00,
2013-06-21 11:45:00,76.3,70.6,30.29,SE,125,1.7,6.2,82,0.00,,,0.00,Meteorologica,2013-06-21 15:45:00,
2013-06-21 11:50:00,76.6,70.6,30.29,WSW,251,1.0,3.2,81,0.00,,,0.00,Meteorologica,2013-06-21 15:50:00,
2013-06-21 11:55:00,76.9,68.2,30.29,South,190,3.2,9.4,73,0.00,,,0.00,Meteorologica,2013-06-21 15:55:00,
2013-06-21 12:00:00,77.2,67.8,30.29,SSW,201,5.4,5.4,72,0.00,,,0.00,Meteorologica,2013-06-21 16:00:00,
2013-06-21 12:05:00,77.4,67.8,30.29,East,95,3.1,7.0,71,0.00,,,0.00,Meteorologica,2013-06-21 16:05:00,
2013-06-21 12:11:00,77.9,68.7,30.28,SSW,207,1.8,6.0,72,0.00,,,0.00,Meteorologica,2013-06-21 16:11:00,
2013-06-21 12:16:00,77.9,68.6,30.29,SW,222,3.4,7.1,72,0.00,,,0.00,Meteorologica,2013-06-21 16:16:00,
2013-06-21 12:21:00,78.2,68.5,30.29,SW,224,2.1,5.0,71,0.00,,,0.00,Meteorologica,2013-06-21 16:21:00,
2013-06-21 12:26:00,78.1,67.8,30.29,SSW,210,1.9,5.1,70,0.00,,,0.00,Meteorologica,2013-06-21 16:26:00,
2013-06-21 12:31:00,78.2,67.4,30.29,SSW,194,0.7,3.2,69,0.00,,,0.00,Meteorologica,2013-06-21 16:31:00,
2013-06-21 12:36:00,78.3,67.3,30.29,SW,214,1.5,2.4,68,0.00,,,0.00,Meteorologica,2013-06-21 16:36:00,
2013-06-21 12:41:00,78.2,68.1,30.29,SSW,211,3.7,3.7,70,0.00,,,0.00,Meteorologica,2013-06-21 16:41:00,
2013-06-21 12:46:00,78.1,67.7,30.29,SW,227,2.5,5.2,70,0.00,,,0.00,Meteorologica,2013-06-21 16:46:00,
2013-06-21 12:51:00,77.9,67.8,30.28,SSW,197,0.2,3.9,70,0.00,,,0.00,Meteorologica,2013-06-21 16:51:00,
2013-06-21 12:56:00,78.0,67.8,30.28,SSW,213,2.0,3.4,70,0.00,,,0.00,Meteorologica,2013-06-21 16:56:00,
2013-06-21 13:01:00,78.1,68.2,30.28,NW,306,1.6,3.3,71,0.00,,,0.00,Meteorologica,2013-06-21 17:01:00,
2013-06-21 13:07:00,78.3,68.9,30.28,NE,56,1.3,3.4,72,0.00,,,0.00,Meteorologica,2013-06-21 17:07:00,
2013-06-21 13:12:00,78.1,68.0,30.28,SSE,151,1.0,4.7,70,0.00,,,0.00,Meteorologica,2013-06-21 17:12:00,
2013-06-21 13:17:00,78.2,68.2,30.28,East,100,1.2,4.3,70,0.00,,,0.00,Meteorologica,2013-06-21 17:17:00,
2013-06-21 13:22:00,78.1,67.1,30.28,NE,39,0.3,4.5,68,0.00,,,0.00,Meteorologica,2013-06-21 17:22:00,
2013-06-21 13:27:00,78.0,67.6,30.28,NE,43,0.0,4.4,69,0.00,,,0.00,Meteorologica,2013-06-21 17:27:00,
2013-06-21 13:32:00,77.9,67.9,30.27,SSW,194,2.5,2.5,70,0.00,,,0.00,Meteorologica,2013-06-21 17:32:00,
2013-06-21 13:37:00,78.0,68.0,30.27,SW,215,2.2,3.5,70,0.00,,,0.00,Meteorologica,2013-06-21 17:37:00,
2013-06-21 13:42:00,78.0,67.6,30.27,South,184,1.8,4.1,70,0.00,,,0.00,Meteorologica,2013-06-21 17:42:00,
2013-06-21 13:46:00,78.0,67.5,30.27,SSW,210,3.2,4.8,69,0.00,,,0.00,Meteorologica,2013-06-21 17:46:00,
2013-06-21 13:47:00,78.1,66.7,30.27,SSW,213,3.6,4.8,67,0.00,,,0.00,Meteorologica,2013-06-21 17:47:00,
2013-06-21 13:52:00,78.2,67.5,30.27,SSW,206,1.5,4.8,69,0.00,,,0.00,Meteorologica,2013-06-21 17:52:00,
2013-06-21 13:57:00,78.3,67.5,30.27,SSW,194,2.3,3.3,68,0.00,,,0.00,Meteorologica,2013-06-21 17:57:00,
2013-06-21 14:02:00,78.7,67.8,30.27,SSW,199,1.1,4.1,68,0.00,,,0.00,Meteorologica,2013-06-21 18:02:00,
2013-06-21 14:07:00,78.9,67.1,30.26,SSW,197,2.8,3.7,66,0.00,,,0.00,Meteorologica,2013-06-21 18:07:00,
2013-06-21 14:14:00,79.2,68.0,30.26,East,95,1.1,3.0,67,0.00,,,0.00,Meteorologica,2013-06-21 18:14:00,
2013-06-21 14:19:00,79.3,67.8,30.26,SW,214,0.8,2.6,67,0.00,,,0.00,Meteorologica,2013-06-21 18:19:00,
2013-06-21 14:23:00,79.4,67.0,30.26,South,191,1.1,2.6,65,0.00,,,0.00,Meteorologica,2013-06-21 18:23:00,
2013-06-21 14:24:00,79.7,67.2,30.26,SW,215,1.7,4.3,65,0.00,,,0.00,Meteorologica,2013-06-21 18:24:00,
2013-06-21 14:29:00,79.8,67.9,30.26,SSW,197,0.0,3.0,66,0.00,,,0.00,Meteorologica,2013-06-21 18:29:00,
2013-06-21 14:34:00,80.0,68.5,30.26,SSW,207,0.6,1.2,67,0.00,,,0.00,Meteorologica,2013-06-21 18:34:00,
2013-06-21 14:39:00,80.0,67.8,30.26,SSW,207,0.0,0.0,65,0.00,,,0.00,Meteorologica,2013-06-21 18:39:00,
2013-06-21 14:44:00,80.0,67.6,30.26,NE,49,0.9,2.0,65,0.00,,,0.00,Meteorologica,2013-06-21 18:44:00,
2013-06-21 14:45:00,80.0,67.3,30.25,NE,49,0.0,2.0,65,0.00,,,0.00,Meteorologica,2013-06-21 18:45:00,
2013-06-21 14:47:00,80.1,67.2,30.25,ENE,69,1.3,2.0,64,0.00,,,0.00,Meteorologica,2013-06-21 18:47:00,
2013-06-21 14:48:00,80.1,67.2,30.25,ENE,64,1.2,2.0,64,0.00,,,0.00,Meteorologica,2013-06-21 18:48:00,
2013-06-21 14:53:00,80.3,66.1,30.25,East,79,2.6,4.3,61,0.00,,,0.00,Meteorologica,2013-06-21 18:53:00,
2013-06-21 15:00:00,80.4,64.5,30.25,East,92,0.9,4.2,58,0.00,,,0.00,Meteorologica,2013-06-21 19:00:00,
2013-06-21 15:05:00,81.0,65.9,30.25,SSW,210,0.7,4.8,59,0.00,,,0.00,Meteorologica,2013-06-21 19:05:00,
2013-06-21 15:10:00,81.7,65.8,30.25,North,350,1.4,5.8,58,0.00,,,0.00,Meteorologica,2013-06-21 19:10:00,
2013-06-21 15:15:00,82.2,65.3,30.24,South,183,1.4,3.9,56,0.00,,,0.00,Meteorologica,2013-06-21 19:15:00,
2013-06-21 15:20:00,82.4,65.0,30.24,SSW,204,3.5,6.9,55,0.00,,,0.00,Meteorologica,2013-06-21 19:20:00,
2013-06-21 15:21:00,82.4,64.3,30.24,SSW,203,2.2,6.9,54,0.00,,,0.00,Meteorologica,2013-06-21 19:21:00,
2013-06-21 15:26:00,82.8,63.5,30.24,SSW,207,3.1,4.9,52,0.00,,,0.00,Meteorologica,2013-06-21 19:26:00,
2013-06-21 15:31:00,83.5,63.9,30.24,South,190,2.4,5.4,50,0.00,,,0.00,Meteorologica,2013-06-21 19:31:00,
2013-06-21 15:36:00,83.9,63.9,30.24,SW,225,2.5,4.7,51,0.00,,,0.00,Meteorologica,2013-06-21 19:36:00,
2013-06-21 15:41:00,84.2,63.3,30.24,WSW,248,2.9,4.5,49,0.00,,,0.00,Meteorologica,2013-06-21 19:41:00,
2013-06-21 15:42:00,84.4,64.0,30.24,West,261,1.5,4.5,50,0.00,,,0.00,Meteorologica,2013-06-21 19:42:00,
2013-06-21 15:43:00,84.2,63.9,30.24,West,265,0.5,4.5,50,0.00,,,0.00,Meteorologica,2013-06-21 19:43:00,
2013-06-21 15:48:00,84.5,64.9,30.24,South,180,0.5,5.0,51,0.00,,,0.00,Meteorologica,2013-06-21 19:48:00,
2013-06-21 15:53:00,84.5,64.2,30.23,ESE,121,0.1,3.5,50,0.00,,,0.00,Meteorologica,2013-06-21 19:53:00,
2013-06-21 15:58:00,84.2,63.4,30.23,SW,228,1.9,4.5,49,0.00,,,0.00,Meteorologica,2013-06-21 19:58:00,
2013-06-21 16:03:00,84.5,64.8,30.23,SSW,211,1.7,4.1,49,0.00,,,0.00,Meteorologica,2013-06-21 20:03:00,
2013-06-21 16:04:00,84.5,61.8,30.23,ESE,115,2.1,6.1,46,0.00,,,0.00,Meteorologica,2013-06-21 20:04:00,
2013-06-21 16:09:00,84.6,61.8,30.23,SSW,196,2.3,6.1,46,0.00,,,0.00,Meteorologica,2013-06-21 20:09:00,
2013-06-21 16:13:00,85.1,62.6,30.23,SSW,193,2.5,6.1,46,0.00,,,0.00,Meteorologica,2013-06-21 20:13:00,
2013-06-21 16:19:00,85.2,61.3,30.23,WNW,292,1.6,4.1,44,0.00,,,0.00,Meteorologica,2013-06-21 20:19:00,
2013-06-21 16:23:00,85.5,62.0,30.22,ESE,103,1.3,5.3,45,0.00,,,0.00,Meteorologica,2013-06-21 20:23:00,
2013-06-21 16:28:00,85.5,63.6,30.22,South,191,2.4,4.5,47,0.00,,,0.00,Meteorologica,2013-06-21 20:28:00,
2013-06-21 16:34:00,85.5,61.1,30.22,SW,225,0.0,4.7,44,0.00,,,0.00,Meteorologica,2013-06-21 20:34:00,
2013-06-21 16:39:00,85.0,62.2,30.22,WSW,248,0.0,1.7,46,0.00,,,0.00,Meteorologica,2013-06-21 20:39:00,
2013-06-21 16:45:00,84.2,62.6,30.22,NW,304,0.2,0.0,48,0.00,,,0.00,Meteorologica,2013-06-21 20:45:00,
2013-06-21 16:50:00,83.7,65.0,30.21,NE,52,0.0,1.7,53,0.00,,,0.00,Meteorologica,2013-06-21 20:50:00,
2013-06-21 16:55:00,83.8,65.1,30.21,SW,218,3.2,3.2,53,0.00,,,0.00,Meteorologica,2013-06-21 20:55:00,
2013-06-21 17:00:00,83.4,64.0,30.21,WNW,303,0.0,3.9,51,0.00,,,0.00,Meteorologica,2013-06-21 21:00:00,
2013-06-21 17:04:00,83.7,63.3,30.21,WSW,254,2.4,4.3,50,0.00,,,0.00,Meteorologica,2013-06-21 21:04:00,
2013-06-21 17:09:00,83.4,63.2,30.21,WNW,293,0.0,2.0,50,0.00,,,0.00,Meteorologica,2013-06-21 21:09:00,
2013-06-21 17:14:00,82.7,62.5,30.21,NE,38,0.0,1.9,50,0.00,,,0.00,Meteorologica,2013-06-21 21:14:00,
2013-06-21 17:19:00,82.3,64.2,30.21,NNW,333,0.0,1.0,54,0.00,,,0.00,Meteorologica,2013-06-21 21:19:00,
2013-06-21 17:24:00,82.0,64.4,30.21,NNW,333,0.0,0.0,54,0.00,,,0.00,Meteorologica,2013-06-21 21:24:00,
2013-06-21 17:29:00,81.5,63.7,30.21,NNW,333,0.0,0.0,54,0.00,,,0.00,Meteorologica,2013-06-21 21:29:00,
2013-06-21 17:34:00,81.7,66.4,30.21,NW,320,0.2,2.0,59,0.00,,,0.00,Meteorologica,2013-06-21 21:34:00,
2013-06-21 17:39:00,81.8,65.7,30.21,WSW,249,0.0,1.6,57,0.00,,,0.00,Meteorologica,2013-06-21 21:39:00,
2013-06-21 17:45:00,81.6,64.3,30.21,ENE,62,1.1,0.0,54,0.00,,,0.00,Meteorologica,2013-06-21 21:45:00,
2013-06-21 17:50:00,81.7,64.8,30.21,East,87,2.8,4.3,56,0.00,,,0.00,Meteorologica,2013-06-21 21:50:00,
2013-06-21 17:55:00,81.7,65.9,30.21,ENE,77,1.6,5.6,58,0.00,,,0.00,Meteorologica,2013-06-21 21:55:00,
2013-06-21 18:00:00,81.4,65.5,30.21,NE,43,3.4,7.3,58,0.00,,,0.00,Meteorologica,2013-06-21 22:00:00,
2013-06-21 18:05:00,81.0,65.5,30.20,NE,47,0.5,7.7,58,0.00,,,0.00,Meteorologica,2013-06-21 22:05:00,
2013-06-21 18:10:00,80.8,66.0,30.20,NE,47,0.0,5.3,60,0.00,,,0.00,Meteorologica,2013-06-21 22:10:00,
2013-06-21 18:15:00,80.4,66.5,30.20,NE,47,0.0,0.0,62,0.00,,,0.00,Meteorologica,2013-06-21 22:15:00,
2013-06-21 18:20:00,80.2,67.2,30.19,NE,47,0.0,0.0,64,0.00,,,0.00,Meteorologica,2013-06-21 22:20:00,
2013-06-21 18:26:00,79.9,67.4,30.19,NE,47,0.0,0.0,65,0.00,,,0.00,Meteorologica,2013-06-21 22:26:00,
2013-06-21 18:31:00,79.5,67.1,30.19,NE,47,0.0,0.0,65,0.00,,,0.00,Meteorologica,2013-06-21 22:31:00,
2013-06-21 18:36:00,79.4,66.2,30.19,NE,47,0.0,0.0,63,0.00,,,0.00,Meteorologica,2013-06-21 22:36:00,
2013-06-21 18:41:00,79.4,66.4,30.19,ESE,114,1.8,4.4,64,0.00,,,0.00,Meteorologica,2013-06-21 22:41:00,
2013-06-21 18:46:00,79.4,66.9,30.19,ENE,73,1.2,6.4,65,0.00,,,0.00,Meteorologica,2013-06-21 22:46:00,
2013-06-21 18:51:00,79.5,67.7,30.19,NE,51,0.7,6.1,66,0.00,,,0.00,Meteorologica,2013-06-21 22:51:00,
2013-06-21 18:56:00,79.4,68.0,30.18,ENE,76,0.9,5.1,67,0.00,,,0.00,Meteorologica,2013-06-21 22:56:00,
2013-06-21 19:01:00,79.2,68.0,30.18,ENE,76,0.0,1.6,68,0.00,,,0.00,Meteorologica,2013-06-21 23:01:00,
2013-06-21 19:06:00,79.2,68.3,30.18,NE,40,0.0,0.0,68,0.00,,,0.00,Meteorologica,2013-06-21 23:06:00,
2013-06-21 19:12:00,79.1,68.6,30.18,ESE,115,0.3,4.5,69,0.00,,,0.00,Meteorologica,2013-06-21 23:12:00,
2013-06-21 19:17:00,79.0,69.0,30.18,ENE,70,1.6,5.1,71,0.00,,,0.00,Meteorologica,2013-06-21 23:17:00,
2013-06-21 19:22:00,79.0,69.2,30.18,ENE,69,0.0,3.3,71,0.00,,,0.00,Meteorologica,2013-06-21 23:22:00,
2013-06-21 19:27:00,78.9,68.8,30.18,ENE,69,0.0,1.4,70,0.00,,,0.00,Meteorologica,2013-06-21 23:27:00,
2013-06-21 19:32:00,78.8,68.8,30.18,ENE,69,0.0,0.0,71,0.00,,,0.00,Meteorologica,2013-06-21 23:32:00,
2013-06-21 19:37:00,78.7,69.2,30.18,ENE,69,0.0,0.0,72,0.00,,,0.00,Meteorologica,2013-06-21 23:37:00,
2013-06-21 19:42:00,78.7,69.4,30.18,ENE,69,0.0,0.0,72,0.00,,,0.00,Meteorologica,2013-06-21 23:42:00,
2013-06-21 19:47:00,78.7,69.6,30.18,ENE,69,0.0,0.0,73,0.00,,,0.00,Meteorologica,2013-06-21 23:47:00,
2013-06-21 19:53:00,78.7,69.7,30.18,ENE,69,0.0,0.0,73,0.00,,,0.00,Meteorologica,2013-06-21 23:53:00,
2013-06-21 19:58:00,78.7,70.2,30.18,ENE,69,0.0,0.0,74,0.00,,,0.00,Meteorologica,2013-06-21 23:58:00,
2013-06-21 20:03:00,78.4,70.2,30.18,ENE,69,0.0,0.0,75,0.00,,,0.00,Meteorologica,2013-06-22 00:03:00,
2013-06-21 20:08:00,78.3,70.7,30.19,ENE,69,0.0,0.0,77,0.00,,,0.00,Meteorologica,2013-06-22 00:08:00,
2013-06-21 20:13:00,78.4,71.1,30.19,ENE,69,0.0,0.0,78,0.00,,,0.00,Meteorologica,2013-06-22 00:13:00,
2013-06-21 20:18:00,78.2,70.1,30.19,ENE,69,0.0,0.0,75,0.00,,,0.00,Meteorologica,2013-06-22 00:18:00,
2013-06-21 20:23:00,78.0,69.5,30.18,ENE,69,0.0,0.0,74,0.00,,,0.00,Meteorologica,2013-06-22 00:23:00,
2013-06-21 20:28:00,77.9,70.0,30.18,ENE,69,0.0,0.0,76,0.00,,,0.00,Meteorologica,2013-06-22 00:28:00,
2013-06-21 20:33:00,77.9,70.5,30.19,ENE,69,0.0,0.0,77,0.00,,,0.00,Meteorologica,2013-06-22 00:33:00,
2013-06-21 20:38:00,77.8,70.6,30.19,ENE,69,0.0,0.0,78,0.00,,,0.00,Meteorologica,2013-06-22 00:38:00,
2013-06-21 20:43:00,77.7,70.6,30.18,ENE,69,0.0,0.0,78,0.00,,,0.00,Meteorologica,2013-06-22 00:43:00,
2013-06-21 20:49:00,77.4,70.2,30.18,ENE,69,0.0,0.0,78,0.00,,,0.00,Meteorologica,2013-06-22 00:49:00,
2013-06-21 20:54:00,77.3,70.0,30.18,ENE,69,0.0,0.0,77,0.00,,,0.00,Meteorologica,2013-06-22 00:54:00,
2013-06-21 20:59:00,77.0,69.6,30.18,ENE,69,0.0,0.0,77,0.00,,,0.00,Meteorologica,2013-06-22 00:59:00,
2013-06-21 21:04:00,77.0,69.9,30.18,ENE,69,0.0,0.0,78,0.00,,,0.00,Meteorologica,2013-06-22 01:04:00,
2013-06-21 21:09:00,76.6,70.7,30.19,ENE,69,0.0,0.0,81,0.00,,,0.00,Meteorologica,2013-06-22 01:09:00,
2013-06-21 21:14:00,76.4,71.6,30.19,ENE,69,0.0,0.0,85,0.00,,,0.00,Meteorologica,2013-06-22 01:14:00,
2013-06-21 21:19:00,76.2,70.9,30.19,ENE,69,0.0,0.0,83,0.00,,,0.00,Meteorologica,2013-06-22 01:19:00,
2013-06-21 21:24:00,75.9,69.8,30.19,ENE,69,0.0,0.0,81,0.00,,,0.00,Meteorologica,2013-06-22 01:24:00,
2013-06-21 21:30:00,75.7,69.6,30.19,ENE,69,0.0,0.0,81,0.00,,,0.00,Meteorologica,2013-06-22 01:30:00,
2013-06-21 21:35:00,75.4,69.1,30.19,ENE,69,0.0,0.0,80,0.00,,,0.00,Meteorologica,2013-06-22 01:35:00,
2013-06-21 21:40:00,75.4,68.9,30.19,ENE,69,0.0,0.0,80,0.00,,,0.00,Meteorologica,2013-06-22 01:40:00,
2013-06-21 21:45:00,75.2,68.7,30.19,ENE,69,0.0,0.0,80,0.00,,,0.00,Meteorologica,2013-06-22 01:45:00,
2013-06-21 21:50:00,74.9,68.5,30.19,ENE,69,0.0,0.0,80,0.00,,,0.00,Meteorologica,2013-06-22 01:50:00,
2013-06-21 22:00:00,74.7,68.3,30.20,ENE,69,0.0,0.0,80,0.00,,,0.00,Meteorologica,2013-06-22 02:00:00,
2013-06-21 22:05:00,74.5,68.3,30.20,ENE,69,0.0,0.0,80,0.00,,,0.00,Meteorologica,2013-06-22 02:05:00,
2013-06-21 22:10:00,74.6,68.7,30.21,ENE,69,0.0,0.0,81,0.00,,,0.00,Meteorologica,2013-06-22 02:10:00,
2013-06-21 22:15:00,74.3,69.1,30.21,ENE,69,0.0,0.0,83,0.00,,,0.00,Meteorologica,2013-06-22 02:15:00,
2013-06-21 22:20:00,74.0,69.9,30.21,ENE,69,0.0,0.0,87,0.00,,,0.00,Meteorologica,2013-06-22 02:20:00,
2013-06-21 22:25:00,73.7,71.6,30.21,ENE,69,0.0,0.0,93,0.00,,,0.00,Meteorologica,2013-06-22 02:25:00,
2013-06-21 22:30:00,73.4,72.6,30.21,ENE,69,0.0,0.0,97,0.00,,,0.00,Meteorologica,2013-06-22 02:30:00,
2013-06-21 22:35:00,72.9,72.6,30.21,ENE,69,0.0,0.0,99,0.00,,,0.00,Meteorologica,2013-06-22 02:35:00,
2013-06-21 22:40:00,72.9,72.7,30.21,ENE,69,0.0,0.0,99,0.00,,,0.00,Meteorologica,2013-06-22 02:40:00,
2013-06-21 22:46:00,72.7,72.5,30.22,ENE,69,0.0,0.0,99,0.00,,,0.00,Meteorologica,2013-06-22 02:46:00,
2013-06-21 22:51:00,72.7,72.7,30.22,ENE,69,0.0,0.0,100,0.00,,,0.00,Meteorologica,2013-06-22 02:51:00,
2013-06-21 22:56:00,72.4,72.4,30.22,ENE,69,0.0,0.0,100,0.00,,,0.00,Meteorologica,2013-06-22 02:56:00,
2013-06-21 23:01:00,72.6,72.6,30.22,ENE,69,0.0,0.0,100,0.00,,,0.00,Meteorologica,2013-06-22 03:01:00,
2013-06-21 23:06:00,72.5,72.5,30.22,ENE,69,0.0,0.0,100,0.00,,,0.00,Meteorologica,2013-06-22 03:06:00,
2013-06-21 23:11:00,72.2,72.2,30.22,ENE,69,0.0,0.0,100,0.00,,,0.00,Meteorologica,2013-06-22 03:11:00,
2013-06-21 23:17:00,72.2,72.2,30.22,ENE,69,0.0,0.0,100,0.00,,,0.00,Meteorologica,2013-06-22 03:17:00,
2013-06-21 23:22:00,72.2,72.2,30.22,ENE,69,0.0,0.0,100,0.00,,,0.00,Meteorologica,2013-06-22 03:22:00,
2013-06-21 23:27:00,72.0,72.0,30.22,ENE,69,0.0,0.0,100,0.00,,,0.00,Meteorologica,2013-06-22 03:27:00,
2013-06-21 23:32:00,71.9,71.9,30.22,ENE,69,0.0,0.0,100,0.00,,,0.00,Meteorologica,2013-06-22 03:32:00,
2013-06-21 23:37:00,71.7,71.7,30.22,ENE,69,0.0,0.0,100,0.00,,,0.00,Meteorologica,2013-06-22 03:37:00,
2013-06-21 23:43:00,71.6,71.6,30.22,ENE,69,0.0,0.0,100,0.00,,,0.00,Meteorologica,2013-06-22 03:43:00,
2013-06-21 23:48:00,71.5,71.5,30.22,ENE,69,0.0,0.0,100,0.00,,,0.00,Meteorologica,2013-06-22 03:48:00,
2013-06-21 23:53:00,71.5,71.5,30.22,ENE,69,0.0,0.0,100,0.00,,,0.00,Meteorologica,2013-06-22 03:53:00,